Overview Statistics Trail Chart Weather Telemetry Raw packets
 

This is the latest recevied weather packets stored in our database for station/object K0APR. If no packets are shown the sender has not sent any weather packets the latest 10 day(s).

<< 98 99 100 101 102 103 104 >>
Time Temp. Humidity Pressure Rain* Wind** Luminosity Snow
1787936004 26.67° C 60% 1019.3 hPa 0 mm - 671 W/m² -
1787935700 27.78° C 58% 1019.3 hPa 0 mm - 422 W/m² -
1787935396 27.22° C 59% 1019.3 hPa 0 mm - 511 W/m² -
1787935092 26.67° C 60% 1019.3 hPa 0 mm - 453 W/m² -
1787934787 26.67° C 59% 1019.3 hPa 0 mm - 309 W/m² -
1787934486 27.22° C 60% 1019.6 hPa 0 mm - 487 W/m² -
1787934181 26.67° C 61% 1019.3 hPa 0 mm - 533 W/m² -
1787933880 26.67° C 61% 1019.3 hPa 0 mm - 519 W/m² -
1787933574 26.67° C 62% 1019.6 hPa 0 mm - 536 W/m² -
1787933269 26.11° C 62% 1019.6 hPa 0 mm - 521 W/m² -
1787932969 25.56° C 63% 1019.6 hPa 0 mm - 517 W/m² -
1787932668 25.56° C 64% 1019.6 hPa 0 mm - 521 W/m² -
1787932368 25° C 64% 1020 hPa 0 mm - 480 W/m² -
1787932062 24.44° C 67% 1020 hPa 0 mm - 396 W/m² -
1787931761 24.44° C 68% 1020 hPa 0 mm - 397 W/m² -
1787931456 23.89° C 69% 1020 hPa 0 mm - 346 W/m² -
1787931156 23.89° C 69% 1020 hPa 0 mm - 214 W/m² -
1787930856 23.89° C 69% 1020 hPa 0 mm - 232 W/m² -
1787930555 23.89° C 69% 1020.3 hPa 0 mm - 285 W/m² -
1787930250 23.33° C 70% 1020 hPa 0 mm - 280 W/m² -
1787929950 23.33° C 69% 1020.3 hPa 0 mm - 231 W/m² -
1787929644 23.33° C 69% 1020 hPa 0 mm - 238 W/m² -
1787929344 22.78° C 69% 1020 hPa 0 mm - 342 W/m² -
1787929042 22.78° C 70% 1020 hPa 0 mm - 228 W/m² -
1787928738 22.78° C 71% 1020 hPa 0 mm - 398 W/m² -

* Rain latest hour (hover to see other rain measurements)
** Current wind speed in m/s (hover to see current wind gust speed)